Location: Santa Teresa Spring
(37.2333°N, 121.7000°W)
Time: 09:39:50
(UTC-07:00)

ISS - Visible Passes

Search period start: 24 July 2016 00:00
Search period end: 03 August 2016 00:00
Orbit: 401 x 404 km, 51.6° (Epoch: 24 July)

Date Brightness Start Highest point End Pass type
(mag) Time Alt. Az. Time Alt. Az. Time Alt. Az.
24 Jul -1.2 05:06:39 10° NNW 05:09:36 30° NNE 05:12:32 10° E visible
25 Jul -0.4 04:14:05 10° NNW 04:16:30 19° NNE 04:18:55 10° ENE visible
25 Jul -1.5 20:53:10 10° SSE 20:54:45 13° SE 20:56:20 10° E visible
25 Jul -2.6 22:27:39 10° WSW 22:30:50 52° NW 22:32:10 29° NNE visible
26 Jul0.500:10:23NNE00:10:23NNE00:05:19WNWvisible
26 Jul 0.1 03:21:44 10° N 03:23:19 13° NNE 03:24:55 10° NE visible
26 Jul -3.1 04:56:59 10° NW 05:00:15 73° NE 05:03:28 10° SE visible
26 Jul -3.5 21:34:40 10° SW 21:37:54 73° SE 21:41:09 10° NE visible
26 Jul -0.2 23:12:33 10° WNW 23:14:39 16° NNW 23:16:46 10° NNE visible
27 Jul -1.7 04:04:13 10° NW 04:07:15 36° NE 04:10:18 10° ESE visible
27 Jul -2.6 20:42:07 10° SSW 20:45:04 32° SE 20:48:01 10° ENE visible
27 Jul -0.9 22:18:47 10° W 22:21:31 24° NNW 22:24:16 10° NNE visible
28 Jul -0.7 03:14:23 21° NE 03:14:23 21° NE 03:16:47 10° E visible
28 Jul -3.0 04:47:38 10° WNW 04:50:44 40° SW 04:53:48 10° SSE visible
28 Jul -2.0 21:25:21 10° WSW 21:28:28 43° NW 21:31:36 10° NE visible
28 Jul 0.3 23:05:06 10° NNW 23:05:35 10° NNW 23:06:04 10° N visible
29 Jul -0.1 22:10:28 10° WNW 22:12:20 14° NNW 22:14:13 10° NNE visible
30 Jul -0.6 21:16:35 10° W 21:19:10 21° NNW 21:21:47 10° NNE visible
01 Aug -0.2 21:08:24 10° NW 21:10:01 13° NNW 21:11:36 10° N visible
